This is the latest recevied weather packets stored in our database for station/object KO6MEZ-13. If no packets are shown the sender has not sent any weather packets the latest 1 day(s).
| Time | Temp. | Humidity | Pressure | Rain* | Wind** | Luminosity | Snow |
|---|---|---|---|---|---|---|---|
| 1778017625 | 13.89° C | 82% | 1013.9 hPa | 0 mm | 0 m/s | 137 W/m² | - |
| 1778017325 | 13.89° C | 82% | 1013.9 hPa | 0 mm | 0 m/s | 145 W/m² | - |
| 1778017025 | 13.89° C | 84% | 1013.9 hPa | 0 mm | 0 m/s | 159 W/m² | - |
| 1778016853 | 13.33° C | 82% | 1013.9 hPa | 0 mm | 0 m/s | 151 W/m² | - |
| 1778016425 | 13.33° C | 84% | 1013.9 hPa | 0 mm | 0 m/s | 165 W/m² | - |
| 1778016125 | 13.33° C | 84% | 1013.9 hPa | 0 mm | 0 m/s | 204 W/m² | - |
| 1778015824 | 13.33° C | 85% | 1013.9 hPa | 0 mm | 0.45 m/s, 0° | 166 W/m² | - |
| 1778015653 | 13.33° C | 85% | 1014.1 hPa | 0 mm | 0 m/s | 139 W/m² | - |
| 1778015225 | 13.33° C | 85% | 1014.1 hPa | 0 mm | 0 m/s | 131 W/m² | - |
| 1778015053 | 13.33° C | 84% | 1014.1 hPa | 0 mm | 0 m/s | 125 W/m² | - |
| 1778014625 | 13.33° C | 83% | 1013.9 hPa | 0 mm | 0.45 m/s, 0° | 138 W/m² | - |
| 1778014325 | 13.89° C | 84% | 1014.1 hPa | 0 mm | 0.45 m/s, 212° | 123 W/m² | - |
| 1778014025 | 13.89° C | 81% | 1014.1 hPa | 0 mm | 0.45 m/s, 0° | 121 W/m² | - |
| 1778013724 | 13.89° C | 80% | 1013.9 hPa | 0 mm | 0.45 m/s, 189° | 139 W/m² | - |
| 1778013425 | 14.44° C | 80% | 1013.9 hPa | 0 mm | 0.45 m/s, 248° | 172 W/m² | - |
| 1778013125 | 14.44° C | 79% | 1013.9 hPa | 0 mm | 0.45 m/s, 212° | 226 W/m² | - |
| 1778012825 | 14.44° C | 78% | 1013.9 hPa | 0 mm | 0.45 m/s, 203° | 262 W/m² | - |
| 1778012526 | 14.44° C | 79% | 1013.8 hPa | 0 mm | 0.45 m/s, 0° | 270 W/m² | - |
| 1778012346 | 13.89° C | 79% | 1013.8 hPa | 0 mm | 0.45 m/s, 281° | 528 W/m² | - |
| 1778012052 | 13.89° C | 82% | 1013.8 hPa | 0 mm | 0.45 m/s, 0° | 491 W/m² | - |
| 1778011751 | 13.89° C | 82% | 1013.8 hPa | 0 mm | 0.45 m/s, 0° | 372 W/m² | - |
| 1778011325 | 13.89° C | 80% | 1013.9 hPa | 0 mm | 0.45 m/s, 208° | 291 W/m² | - |
| 1778011151 | 13.89° C | 80% | 1013.9 hPa | 0 mm | 0.45 m/s, 83° | 207 W/m² | - |
| 1778010725 | 13.89° C | 78% | 1013.9 hPa | 0 mm | 0.45 m/s, 174° | 359 W/m² | - |
| 1778010425 | 13.89° C | 76% | 1013.9 hPa | 0 mm | 0.45 m/s, 0° | 448 W/m² | - |
* Rain latest hour (hover to see other rain measurements)
** Current wind speed in m/s (hover to see current wind gust speed)